QPF
0.00 0.00 0.00 0.00 0.00 0.00 0.00 0.00 0.00 0.00 0.01 0.02 0.05 0.04 0.02 0.02 0.01 0.01 0.00 0.00 0.00 0.00 0.00 0.00 0.00 0.00 0.00 0.00 0.00 0.00 0.00 0.00 0.00 0.00 0.00 0.00 0.00 0.00 0.00 0.00 0.00 0.00 0.00
0.00 0.00 0.00 0.00 0.00 0.00 0.00 0.00 0.00 0.00 0.01 0.04 0.06 0.07 0.04 0.02 0.01 0.01 0.00 0.00 0.00 0.00 0.00 0.00 0.00 0.00 0.00 0.00 0.00 0.00 0.00 0.00 0.00 0.00 0.00 0.00 0.00 0.00 0.00 0.00 0.00 0.00 0.00
0.00 0.00 0.00 0.00 0.00 0.00 0.00 0.00 0.00 0.01 0.02 0.03 0.05 0.05 0.03 0.01 0.00 0.00 0.00 0.00 0.00 0.00 0.00 0.00 0.00 0.00 0.00 0.00 0.00 0.00 0.00 0.00 0.00 0.00 0.00 0.00 0.00 0.00 0.00 0.00 0.00 0.00 0.00
0.00 0.00 0.00 0.00 0.00 0.00 0.00 0.00 0.00 0.01 0.02 0.03 0.05 0.04 0.02 0.01 0.00 0.00 0.00 0.00 0.00 0.00 0.00 0.00 0.00 0.00 0.00 0.00 0.00 0.00 0.00 0.00 0.00 0.00 0.00 0.00 0.00 0.00 0.00 0.00 0.00 0.00 0.00
0.00 0.00 0.00 0.00 0.00 0.00 0.00 0.00 0.00 0.00 0.01 0.02 0.06 0.06 0.02 0.01 0.00 0.00 0.00 0.00 0.00 0.00 0.00 0.00 0.00 0.00 0.00 0.00 0.00 0.00 0.00 0.00 0.00 0.00 0.00 0.00 0.00 0.00 0.00 0.00 0.00 0.00 0.00
0.00 0.00 0.00 0.00 0.00 0.00 0.00 0.00 0.00 0.00 0.00 0.01 0.03 0.02 0.00 0.00 0.00 0.00 0.00 0.00 0.00 0.00 0.00 0.00 0.00 0.00 0.00 0.00 0.00 0.00 0.00 0.00 0.00 0.00 0.00 0.00 0.00 0.00 0.00 0.00 0.00 0.00 0.00
0.00 0.00 0.00 0.00 0.00 0.00 0.00 0.00 0.00 0.00 0.00 0.01 0.01 0.01 0.01 0.00 0.00 0.00 0.00 0.00 0.00 0.00 0.00 0.00 0.00 0.00 0.00 0.00 0.00 0.00 0.00 0.00 0.00 0.00 0.00 0.00 0.00 0.00 0.00 0.00 0.00 0.00 0.00
0.00 0.00 0.00 0.00 0.00 0.00 0.00 0.00 0.00 0.00 0.00 0.00 0.00 0.01 0.01 0.00 0.00 0.00 0.00 0.00 0.00 0.00 0.00 0.00 0.00 0.00 0.00 0.00 0.00 0.00 0.00 0.00 0.00 0.00 0.00 0.00 0.00 0.00 0.00 0.00 0.00 0.00 0.00
0.00 0.00 0.00 0.00 0.00 0.00 0.00 0.00 0.00 0.00 0.00 0.00 0.00 0.00 0.00 0.00 0.00 0.00 0.00 0.00 0.00 0.00 0.00 0.00 0.00 0.00 0.00 0.00 0.00 0.00 0.00 0.00 0.00 0.00 0.00 0.00 0.00 0.00 0.00 0.00 0.00 0.00 0.00
0.00 0.00 0.00 0.00 0.00 0.00 0.00 0.00 0.00 0.00 0.00 0.00 0.00 0.00 0.00 0.00 0.00 0.00 0.00 0.00 0.00 0.00 0.00 0.00 0.00 0.00 0.00 0.00 0.00 0.00 0.00 0.00 0.00 0.00 0.00 0.00 0.00 0.00 0.00 0.00 0.00 0.00 0.00
0.00 0.00 0.00 0.00 0.00 0.00 0.00 0.00 0.00 0.00 0.00 0.00 0.00 0.00 0.00 0.00 0.00 0.00 0.00 0.00 0.00 0.00 0.00 0.00 0.00 0.00 0.00 0.00 0.00 0.00 0.00 0.00 0.00 0.00 0.00 0.00 0.00 0.00 0.00 0.00 0.00 0.00 0.00
0.00 0.00 0.00 0.00 0.00 0.00 0.00 0.00 0.00 0.00 0.00 0.00 0.00 0.00 0.00 0.00 0.00 0.00 0.00 0.00 0.00 0.00 0.00 0.00 0.00 0.00 0.00 0.00 0.00 0.00 0.00 0.00 0.00 0.00 0.00 0.00 0.00 0.00 0.00 0.00 0.00 0.00 0.00
0.00 0.00 0.00 0.00 0.00 0.00 0.00 0.00 0.00 0.00 0.00 0.00 0.00 0.00 0.00 0.00 0.00 0.00 0.00 0.00 0.00 0.00 0.00 0.00 0.00 0.00 0.00 0.00 0.00 0.00 0.00 0.00 0.00 0.00 0.00 0.00 0.00 0.00 0.00 0.00 0.00 0.00 0.00
0.00 0.00 0.00 0.00 0.00 0.00 0.00 0.00 0.00 0.00 0.00 0.00 0.00 0.00 0.00 0.00 0.00 0.00 0.00 0.00 0.00 0.00 0.00 0.00 0.00 0.00 0.00 0.00 0.00 0.00 0.00 0.00 0.00 0.00 0.00 0.00 0.00 0.00 0.00 0.00 0.00 0.00 0.00
0.00 0.00 0.00 0.00 0.00 0.00 0.00 0.00 0.00 0.00 0.01 0.00 0.00 0.00 0.00 0.00 0.00 0.00 0.00 0.00 0.00 0.00 0.00 0.00 0.00 0.00 0.00 0.00 0.00 0.00 0.00 0.00 0.00 0.00 0.00 0.00 0.00 0.00 0.00 0.00 0.00 0.01 0.01
0.00 0.00 0.00 0.00 0.00 0.00 0.01 0.01 0.02 0.01 0.01 0.00 0.00 0.00 0.00 0.00 0.00 0.00 0.00 0.00 0.00 0.00 0.00 0.00 0.00 0.00 0.00 0.00 0.00 0.00 0.00 0.00 0.00 0.00 0.00 0.00 0.00 0.00 0.00 0.00 0.01 0.02 0.05
0.01 0.00 0.00 0.00 0.00 0.01 0.02 0.04 0.03 0.01 0.00 0.00 0.00 0.00 0.00 0.00 0.00 0.00 0.00 0.00 0.00 0.00 0.00 0.00 0.00 0.00 0.00 0.00 0.00 0.00 0.00 0.00 0.00 0.00 0.00 0.00 0.00 0.00 0.00 0.00 0.01 0.03 0.03
0.01 0.01 0.00 0.00 0.00 0.01 0.02 0.02 0.01 0.00 0.00 0.00 0.00 0.00 0.00 0.00 0.00 0.00 0.00 0.00 0.00 0.00 0.00 0.00 0.00 0.00 0.00 0.00 0.00 0.00 0.00 0.00 0.00 0.00 0.00 0.00 0.00 0.00 0.01 0.02 0.03 0.02 0.01
0.00 0.00 0.00 0.00 0.00 0.01 0.01 0.00 0.00 0.00 0.00 0.00 0.00 0.00 0.00 0.00 0.00 0.00 0.00 0.00 0.00 0.00 0.00 0.00 0.00 0.00 0.00 0.00 0.00 0.00 0.00 0.00 0.00 0.00 0.00 0.00 0.00 0.01 0.02 0.03 0.02 0.01 0.00
0.00 0.00 0.00 0.00 0.00 0.00 0.00 0.00 0.00 0.00 0.00 0.00 0.00 0.00 0.00 0.00 0.00 0.00 0.00 0.00 0.00 0.00 0.00 0.00 0.00 0.00 0.00 0.00 0.00 0.00 0.00 0.00 0.00 0.00 0.00 0.00 0.00 0.01 0.02 0.02 0.01 0.00 0.00
0.00 0.00 0.00 0.00 0.00 0.00 0.00 0.00 0.00 0.00 0.00 0.00 0.00 0.00 0.00 0.00 0.00 0.00 0.00 0.00 0.00 0.00 0.00 0.00 0.00 0.00 0.00 0.00 0.00 0.00 0.00 0.00 0.00 0.00 0.00 0.00 0.01 0.02 0.02 0.01 0.00 0.00 0.01
0.00 0.00 0.00 0.00 0.00 0.00 0.00 0.00 0.00 0.00 0.00 0.00 0.00 0.00 0.00 0.00 0.00 0.00 0.00 0.00 0.00 0.00 0.00 0.00 0.00 0.00 0.00 0.00 0.00 0.00 0.00 0.01 0.01 0.00 0.00 0.00 0.01 0.01 0.00 0.00 0.00 0.01 0.01
0.00 0.00 0.00 0.00 0.00 0.00 0.00 0.00 0.00 0.00 0.00 0.00 0.00 0.00 0.00 0.00 0.00 0.00 0.00 0.00 0.00 0.00 0.00 0.00 0.00 0.00 0.00 0.00 0.00 0.00 0.00 0.01 0.01 0.00 0.00 0.01 0.00 0.00 0.00 0.00 0.00 0.00 0.00
0.00 0.00 0.00 0.00 0.00 0.00 0.00 0.00 0.00 0.00 0.00 0.00 0.00 0.00 0.00 0.00 0.00 0.00 0.00 0.00 0.00 0.00 0.00 0.00 0.00 0.00 0.00 0.00 0.00 0.00 0.00 0.00 0.01 0.00 0.00 0.00 0.00 0.00 0.00 0.00 0.00 0.00 0.00
0.00 0.00 0.00 0.00 0.00 0.00 0.00 0.00 0.00 0.00 0.00 0.00 0.00 0.00 0.00 0.00 0.00 0.00 0.00 0.00 0.00 0.00 0.00 0.00 0.00 0.00 0.00 0.00 0.00 0.01 0.01 0.01 0.00 0.00 0.00 0.00 0.00 0.00 0.00 0.00 0.00 0.00 0.00
0.00 0.00 0.00 0.00 0.00 0.00 0.00 0.00 0.00 0.00 0.00 0.00 0.00 0.00 0.00 0.00 0.00 0.00 0.00 0.00 0.00 0.00 0.00 0.00 0.00 0.00 0.00 0.00 0.00 0.01 0.01 0.00 0.00 0.00 0.00 0.00 0.00 0.00 0.00 0.00 0.00 0.00 0.00
MSLP
1007.10 1006.87 1006.72 1006.67 1006.73 1006.91 1007.20 1007.59 1008.07 1008.61 1009.20 1009.82 1010.47 1011.15 1011.84 1012.56 1013.28 1013.99 1014.68 1015.33 1015.92 1016.44 1016.88 1017.25 1017.55 1017.79 1017.97 1018.11 1018.19 1018.22 1018.18 1018.09 1017.94 1017.75 1017.54 1017.32 1017.12 1016.97 1016.86 1016.81 1016.80 1016.81 1016.83
1006.51 1006.28 1006.13 1006.08 1006.15 1006.33 1006.64 1007.07 1007.59 1008.19 1008.85 1009.54 1010.26 1011.01 1011.76 1012.53 1013.30 1014.06 1014.79 1015.47 1016.10 1016.65 1017.12 1017.50 1017.80 1018.04 1018.22 1018.35 1018.43 1018.46 1018.44 1018.36 1018.23 1018.06 1017.85 1017.61 1017.38 1017.16 1016.98 1016.83 1016.73 1016.66 1016.62
1005.81 1005.60 1005.46 1005.41 1005.48 1005.68 1006.01 1006.47 1007.05 1007.72 1008.45 1009.22 1010.01 1010.82 1011.64 1012.46 1013.27 1014.06 1014.83 1015.55 1016.20 1016.78 1017.28 1017.68 1017.99 1018.24 1018.42 1018.55 1018.64 1018.69 1018.69 1018.65 1018.55 1018.40 1018.20 1017.96 1017.69 1017.41 1017.15 1016.91 1016.71 1016.55 1016.43
1005.02 1004.83 1004.70 1004.66 1004.74 1004.96 1005.32 1005.82 1006.46 1007.19 1008.00 1008.84 1009.71 1010.59 1011.46 1012.32 1013.17 1013.99 1014.79 1015.53 1016.22 1016.83 1017.35 1017.77 1018.11 1018.37 1018.56 1018.71 1018.82 1018.89 1018.93 1018.93 1018.87 1018.76 1018.58 1018.34 1018.04 1017.71 1017.37 1017.04 1016.74 1016.49 1016.28
1004.18 1004.00 1003.89 1003.87 1003.97 1004.20 1004.60 1005.15 1005.84 1006.64 1007.51 1008.44 1009.37 1010.31 1011.23 1012.13 1013.01 1013.86 1014.68 1015.45 1016.16 1016.79 1017.34 1017.79 1018.15 1018.43 1018.64 1018.81 1018.94 1019.05 1019.13 1019.18 1019.17 1019.10 1018.95 1018.72 1018.42 1018.06 1017.65 1017.24 1016.84 1016.49 1016.20
1003.35 1003.20 1003.11 1003.11 1003.22 1003.48 1003.91 1004.50 1005.24 1006.10 1007.04 1008.02 1009.02 1010.01 1010.98 1011.91 1012.82 1013.70 1014.54 1015.33 1016.06 1016.71 1017.28 1017.75 1018.13 1018.43 1018.67 1018.86 1019.02 1019.16 1019.28 1019.38 1019.42 1019.40 1019.29 1019.09 1018.78 1018.39 1017.94 1017.46 1016.98 1016.54 1016.15
1002.61 1002.49 1002.43 1002.45 1002.59 1002.87 1003.33 1003.95 1004.73 1005.63 1006.62 1007.65 1008.70 1009.73 1010.74 1011.70 1012.63 1013.53 1014.39 1015.20 1015.95 1016.62 1017.21 1017.70 1018.10 1018.41 1018.66 1018.87 1019.05 1019.22 1019.37 1019.51 1019.60 1019.62 1019.55 1019.37 1019.08 1018.68 1018.20 1017.67 1017.12 1016.60 1016.13
1002.04 1001.96 1001.93 1001.97 1002.13 1002.44 1002.91 1003.56 1004.37 1005.30 1006.32 1007.38 1008.46 1009.51 1010.54 1011.53 1012.49 1013.40 1014.28 1015.11 1015.88 1016.58 1017.18 1017.68 1018.09 1018.41 1018.66 1018.86 1019.05 1019.22 1019.39 1019.55 1019.67 1019.72 1019.69 1019.55 1019.28 1018.89 1018.39 1017.82 1017.23 1016.64 1016.10
1001.68 1001.63 1001.63 1001.71 1001.90 1002.23 1002.73 1003.39 1004.21 1005.15 1006.18 1007.25 1008.34 1009.41 1010.45 1011.45 1012.42 1013.35 1014.25 1015.10 1015.89 1016.60 1017.22 1017.73 1018.13 1018.44 1018.67 1018.86 1019.02 1019.18 1019.34 1019.49 1019.62 1019.70 1019.69 1019.58 1019.33 1018.96 1018.47 1017.89 1017.27 1016.64 1016.04
1001.52 1001.52 1001.56 1001.68 1001.90 1002.26 1002.78 1003.46 1004.28 1005.22 1006.24 1007.31 1008.38 1009.44 1010.48 1011.48 1012.46 1013.41 1014.32 1015.19 1016.00 1016.73 1017.35 1017.86 1018.24 1018.53 1018.72 1018.87 1018.98 1019.09 1019.21 1019.34 1019.46 1019.53 1019.54 1019.45 1019.24 1018.90 1018.43 1017.87 1017.24 1016.59 1015.95
1001.54 1001.58 1001.67 1001.84 1002.11 1002.51 1003.06 1003.75 1004.59 1005.52 1006.52 1007.56 1008.61 1009.65 1010.67 1011.66 1012.64 1013.59 1014.52 1015.40 1016.22 1016.95 1017.57 1018.06 1018.42 1018.66 1018.81 1018.88 1018.93 1018.97 1019.03 1019.11 1019.19 1019.25 1019.26 1019.19 1019.01 1018.70 1018.28 1017.75 1017.14 1016.49 1015.83
1001.65 1001.75 1001.90 1002.14 1002.47 1002.93 1003.52 1004.24 1005.08 1006.01 1006.99 1008.00 1009.02 1010.02 1011.01 1011.98 1012.94 1013.89 1014.82 1015.70 1016.52 1017.25 1017.86 1018.33 1018.65 1018.83 1018.91 1018.91 1018.88 1018.83 1018.81 1018.82 1018.85 1018.88 1018.89 1018.83 1018.67 1018.41 1018.03 1017.54 1016.97 1016.34 1015.68
1001.79 1001.96 1002.19 1002.50 1002.92 1003.45 1004.10 1004.86 1005.72 1006.65 1007.62 1008.60 1009.58 1010.54 1011.49 1012.43 1013.36 1014.29 1015.20 1016.07 1016.88 1017.59 1018.18 1018.61 1018.89 1019.02 1019.03 1018.95 1018.83 1018.69 1018.59 1018.52 1018.49 1018.49 1018.47 1018.41 1018.28 1018.06 1017.72 1017.28 1016.75 1016.15 1015.51
1001.93 1002.17 1002.48 1002.89 1003.39 1004.01 1004.73 1005.55 1006.44 1007.38 1008.34 1009.30 1010.25 1011.17 1012.08 1012.98 1013.87 1014.77 1015.64 1016.49 1017.27 1017.95 1018.49 1018.89 1019.11 1019.19 1019.13 1018.98 1018.78 1018.57 1018.38 1018.24 1018.15 1018.10 1018.06 1018.00 1017.88 1017.68 1017.38 1016.98 1016.49 1015.92 1015.30
1002.06 1002.38 1002.78 1003.27 1003.87 1004.57 1005.37 1006.25 1007.19 1008.15 1009.12 1010.07 1010.99 1011.87 1012.74 1013.59 1014.44 1015.28 1016.11 1016.91 1017.64 1018.27 1018.77 1019.11 1019.29 1019.31 1019.20 1018.99 1018.73 1018.46 1018.21 1018.01 1017.87 1017.77 1017.70 1017.61 1017.49 1017.30 1017.02 1016.64 1016.18 1015.63 1015.03
1002.22 1002.61 1003.09 1003.67 1004.35 1005.13 1006.00 1006.94 1007.93 1008.92 1009.90 1010.85 1011.75 1012.61 1013.43 1014.24 1015.03 1015.81 1016.57 1017.30 1017.97 1018.54 1018.99 1019.28 1019.41 1019.39 1019.24 1018.99 1018.69 1018.37 1018.08 1017.83 1017.64 1017.50 1017.38 1017.27 1017.12 1016.92 1016.63 1016.26 1015.80 1015.27 1014.67
1002.47 1002.93 1003.48 1004.12 1004.86 1005.71 1006.63 1007.63 1008.65 1009.67 1010.67 1011.62 1012.51 1013.35 1014.13 1014.89 1015.62 1016.33 1017.01 1017.66 1018.25 1018.75 1019.13 1019.37 1019.45 1019.40 1019.22 1018.95 1018.63 1018.29 1017.97 1017.70 1017.47 1017.28 1017.12 1016.96 1016.77 1016.53 1016.21 1015.81 1015.34 1014.80 1014.21
1002.91 1003.41 1004.00 1004.68 1005.46 1006.34 1007.29 1008.31 1009.36 1010.40 1011.41 1012.36 1013.25 1014.06 1014.82 1015.52 1016.19 1016.82 1017.42 1017.98 1018.48 1018.90 1019.20 1019.38 1019.43 1019.35 1019.16 1018.88 1018.56 1018.21 1017.88 1017.58 1017.31 1017.08 1016.87 1016.65 1016.40 1016.11 1015.74 1015.30 1014.79 1014.23 1013.63
1003.57 1004.11 1004.71 1005.40 1006.18 1007.06 1008.02 1009.04 1010.09 1011.13 1012.14 1013.09 1013.96 1014.76 1015.48 1016.14 1016.74 1017.29 1017.80 1018.27 1018.67 1019.00 1019.23 1019.35 1019.35 1019.25 1019.05 1018.77 1018.45 1018.11 1017.77 1017.45 1017.16 1016.88 1016.61 1016.33 1016.01 1015.64 1015.21 1014.72 1014.17 1013.58 1012.96
1004.48 1005.02 1005.62 1006.29 1007.05 1007.90 1008.83 1009.83 1010.86 1011.89 1012.88 1013.81 1014.67 1015.43 1016.12 1016.72 1017.26 1017.73 1018.16 1018.53 1018.83 1019.07 1019.22 1019.28 1019.24 1019.11 1018.90 1018.63 1018.31 1017.97 1017.63 1017.29 1016.96 1016.64 1016.31 1015.96 1015.58 1015.14 1014.65 1014.11 1013.52 1012.90 1012.26
1005.59 1006.12 1006.70 1007.34 1008.06 1008.87 1009.75 1010.70 1011.69 1012.67 1013.63 1014.53 1015.36 1016.09 1016.73 1017.28 1017.75 1018.15 1018.49 1018.76 1018.98 1019.13 1019.20 1019.20 1019.12 1018.96 1018.73 1018.45 1018.13 1017.79 1017.44 1017.08 1016.72 1016.36 1015.98 1015.57 1015.12 1014.63 1014.09 1013.50 1012.88 1012.24 1011.60
1006.82 1007.35 1007.91 1008.51 1009.18 1009.93 1010.76 1011.65 1012.57 1013.51 1014.41 1015.26 1016.03 1016.72 1017.31 1017.80 1018.20 1018.53 1018.79 1018.98 1019.11 1019.18 1019.19 1019.12 1018.99 1018.80 1018.56 1018.26 1017.94 1017.58 1017.21 1016.83 1016.45 1016.04 1015.62 1015.16 1014.67 1014.15 1013.57 1012.97 1012.34 1011.69 1011.05
1008.10 1008.62 1009.16 1009.73 1010.36 1011.06 1011.83 1012.65 1013.50 1014.36 1015.19 1015.98 1016.69 1017.31 1017.84 1018.27 1018.61 1018.87 1019.05 1019.17 1019.23 1019.23 1019.17 1019.06 1018.88 1018.66 1018.39 1018.07 1017.73 1017.36 1016.97 1016.57 1016.15 1015.72 1015.27 1014.79 1014.28 1013.73 1013.15 1012.55 1011.92 1011.29 1010.67
1009.33 1009.85 1010.38 1010.94 1011.55 1012.20 1012.91 1013.66 1014.44 1015.21 1015.96 1016.66 1017.30 1017.84 1018.30 1018.67 1018.94 1019.14 1019.26 1019.32 1019.32 1019.27 1019.16 1019.00 1018.79 1018.53 1018.23 1017.90 1017.54 1017.15 1016.74 1016.32 1015.88 1015.43 1014.97 1014.48 1013.96 1013.43 1012.86 1012.28 1011.68 1011.07 1010.46
1010.45 1010.99 1011.53 1012.09 1012.68 1013.30 1013.96 1014.65 1015.34 1016.03 1016.68 1017.29 1017.83 1018.29 1018.68 1018.97 1019.19 1019.33 1019.40 1019.42 1019.38 1019.28 1019.14 1018.94 1018.71 1018.42 1018.10 1017.75 1017.37 1016.96 1016.54 1016.11 1015.66 1015.21 1014.74 1014.26 1013.76 1013.24 1012.71 1012.15 1011.58 1011.00 1010.40
1011.44 1012.01 1012.58 1013.15 1013.73 1014.33 1014.95 1015.56 1016.17 1016.77 1017.32 1017.83 1018.27 1018.65 1018.95 1019.19 1019.35 1019.44 1019.48 1019.46 1019.39 1019.27 1019.10 1018.88 1018.63 1018.33 1017.99 1017.62 1017.23 1016.82 1016.39 1015.95 1015.51 1015.06 1014.60 1014.14 1013.66 1013.17 1012.67 1012.14 1011.59 1011.03 1010.43
Thickness
5674 5678 5683 5688 5689 5690 5691 5692 5690 5686 5680 5675 5671 5666 5662 5657 5652 5648 5642 5638 5634 5629 5625 5621 5616 5613 5610 5608 5606 5603 5600 5596 5594 5598 5600 5598 5594 5592 5588 5584 5582 5579 5574
5668 5674 5678 5682 5683 5685 5685 5686 5686 5681 5676 5672 5667 5662 5656 5649 5644 5637 5631 5627 5625 5621 5618 5615 5609 5605 5601 5599 5596 5594 5592 5586 5583 5584 5587 5589 5589 5583 5579 5575 5572 5569 5565
5665 5670 5675 5679 5680 5679 5680 5681 5681 5675 5670 5666 5660 5652 5646 5639 5632 5625 5620 5617 5615 5612 5610 5606 5601 5597 5594 5590 5587 5584 5581 5579 5573 5570 5571 5574 5576 5571 5571 5566 5561 5557 5552
5663 5667 5672 5677 5679 5677 5677 5676 5675 5670 5666 5661 5655 5653 5650 5642 5632 5623 5614 5609 5606 5604 5601 5597 5592 5588 5584 5580 5576 5572 5568 5565 5564 5559 5554 5553 5551 5553 5561 5561 5555 5548 5540
5657 5661 5666 5671 5676 5675 5672 5671 5667 5664 5661 5656 5652 5649 5646 5639 5625 5614 5607 5602 5598 5595 5591 5587 5583 5579 5575 5570 5565 5560 5557 5553 5550 5547 5544 5542 5538 5537 5537 5546 5545 5540 5534
5647 5653 5659 5663 5667 5666 5664 5663 5661 5659 5656 5653 5648 5646 5640 5629 5617 5608 5601 5596 5591 5586 5581 5577 5572 5568 5564 5559 5554 5550 5546 5541 5537 5533 5530 5528 5527 5526 5523 5525 5528 5526 5523
5636 5643 5650 5654 5658 5658 5658 5658 5656 5654 5651 5648 5645 5639 5631 5624 5616 5608 5600 5594 5586 5579 5572 5567 5562 5557 5553 5548 5544 5540 5535 5530 5526 5523 5520 5516 5512 5508 5505 5504 5507 5507 5507
5624 5633 5641 5647 5651 5652 5653 5653 5652 5650 5647 5643 5638 5630 5622 5617 5611 5604 5597 5590 5581 5573 5564 5558 5551 5546 5542 5538 5534 5530 5524 5519 5515 5512 5507 5503 5499 5494 5490 5486 5485 5489 5494
5611 5622 5632 5639 5644 5647 5648 5649 5648 5645 5641 5637 5630 5621 5614 5609 5602 5595 5588 5581 5572 5563 5555 5547 5541 5536 5532 5529 5525 5521 5515 5509 5505 5501 5496 5490 5485 5479 5474 5470 5466 5464 5470
5599 5612 5623 5630 5636 5639 5641 5641 5639 5636 5632 5626 5620 5611 5605 5599 5593 5586 5578 5570 5562 5554 5546 5538 5532 5527 5523 5520 5515 5510 5504 5500 5495 5488 5482 5477 5471 5466 5461 5456 5451 5445 5443
5586 5601 5613 5621 5625 5628 5631 5631 5628 5623 5618 5612 5606 5600 5595 5589 5583 5576 5568 5560 5552 5544 5536 5529 5523 5519 5515 5510 5505 5501 5495 5490 5484 5476 5469 5463 5456 5451 5446 5440 5434 5429 5424
5576 5589 5601 5609 5612 5617 5622 5620 5616 5610 5605 5600 5596 5590 5585 5580 5573 5564 5555 5548 5541 5533 5526 5520 5514 5509 5504 5499 5495 5491 5485 5479 5471 5464 5456 5449 5442 5436 5430 5424 5418 5412 5406
5567 5578 5588 5596 5601 5607 5610 5607 5602 5596 5591 5589 5587 5582 5577 5571 5562 5553 5544 5536 5528 5521 5515 5510 5505 5499 5493 5488 5484 5480 5474 5467 5459 5450 5443 5436 5428 5421 5415 5408 5402 5396 5388
5559 5568 5577 5585 5590 5594 5595 5592 5587 5583 5581 5581 5580 5576 5568 5560 5551 5542 5533 5524 5516 5510 5504 5499 5493 5487 5482 5477 5472 5468 5462 5455 5446 5437 5429 5421 5414 5406 5399 5393 5386 5377 5368
5553 5559 5568 5575 5578 5580 5579 5576 5574 5573 5574 5574 5570 5564 5556 5547 5538 5530 5521 5513 5505 5498 5493 5487 5481 5476 5471 5466 5460 5456 5450 5442 5434 5426 5417 5409 5400 5391 5383 5375 5366 5355 5345
5551 5555 5560 5564 5566 5567 5566 5566 5566 5566 5566 5564 5557 5550 5542 5534 5526 5518 5510 5501 5493 5487 5481 5475 5470 5465 5459 5451 5446 5441 5436 5430 5422 5413 5406 5398 5389 5380 5370 5359 5346 5332 5320
5551 5553 5556 5558 5559 5559 5559 5560 5559 5559 5556 5551 5544 5537 5529 5521 5513 5505 5498 5490 5483 5476 5470 5465 5459 5454 5447 5439 5434 5428 5422 5416 5408 5400 5392 5385 5376 5364 5353 5342 5329 5314 5298
5555 5554 5555 5554 5553 5553 5554 5554 5553 5550 5544 5538 5531 5524 5516 5508 5501 5494 5487 5480 5473 5466 5460 5454 5448 5442 5436 5427 5421 5416 5412 5405 5396 5387 5379 5370 5360 5347 5334 5325 5312 5298 5284
5558 5555 5552 5550 5550 5549 5549 5548 5543 5537 5532 5525 5518 5511 5504 5498 5490 5483 5476 5468 5462 5455 5449 5442 5437 5432 5425 5416 5410 5405 5401 5394 5386 5376 5366 5354 5342 5329 5316 5305 5295 5285 5275
5551 5548 5546 5544 5543 5541 5540 5538 5531 5525 5519 5512 5505 5499 5493 5487 5480 5472 5464 5457 5450 5443 5438 5432 5427 5420 5414 5407 5399 5392 5389 5384 5375 5364 5352 5339 5325 5310 5296 5286 5279 5274 5267
5541 5540 5538 5535 5533 5532 5531 5527 5520 5512 5505 5500 5494 5487 5481 5474 5467 5460 5452 5445 5439 5434 5428 5423 5417 5411 5404 5397 5388 5380 5373 5365 5356 5346 5335 5321 5306 5292 5280 5271 5266 5262 5259
5533 5532 5530 5525 5523 5522 5520 5514 5505 5499 5494 5488 5481 5474 5467 5460 5454 5448 5441 5435 5429 5425 5419 5414 5409 5402 5394 5384 5376 5366 5356 5347 5337 5327 5315 5302 5288 5277 5269 5263 5259 5255 5254
5525 5523 5522 5518 5514 5511 5509 5503 5493 5488 5483 5476 5469 5462 5455 5448 5443 5438 5432 5425 5419 5414 5410 5405 5399 5391 5382 5373 5363 5353 5343 5332 5320 5308 5295 5283 5274 5267 5262 5258 5254 5252 5250
5518 5516 5514 5511 5504 5500 5496 5491 5483 5478 5472 5465 5457 5451 5445 5439 5433 5427 5421 5415 5410 5404 5399 5393 5386 5378 5370 5361 5351 5340 5329 5318 5306 5293 5282 5272 5265 5260 5256 5254 5252 5250 5247
5511 5509 5505 5500 5493 5488 5483 5477 5472 5468 5462 5455 5449 5442 5436 5430 5423 5416 5410 5405 5398 5391 5385 5380 5372 5364 5356 5346 5334 5322 5313 5301 5289 5279 5272 5267 5261 5256 5253 5251 5249 5246 5244
5501 5498 5495 5490 5483 5478 5471 5466 5462 5458 5453 5447 5440 5433 5427 5420 5414 5408 5402 5393 5386 5379 5372 5364 5355 5348 5338 5329 5318 5306 5293 5283 5273 5267 5263 5259 5254 5251 5248 5246 5244 5242 5240